Content
SEND FEEDBACK

Daily
Averages
Monthly
Summary
United States of America

DIME BOX, TEXAS


Home > North America > United States > Texas
Elevation: 330 feet     Latitude: 30 21N     Longitude: 096 50W

WEATHER
 
SELECT A DAY
Number of Records: 226,135;   Date Range: 5/31/05 - 11/22/14
 
SHARE

PRINT THIS DATA

[ ← Previous Day ]
WEATHER ALMANAC - JANUARY 23, 2013
[ Next Day → ]
[ °C ]   °F
Weather ElementAverageHighLow
Temperature58.6 °F71.6 °F (1:55 pm)44.6 °F (5:55 am)
Dewpoint53.9 °F60.8 °F (10:35 pm)44.6 °F (5:55 am)
Humidity86.3 %100 % (1:35 am)60 % (12:35 pm)
Barometer30.30 in30.38 in (10:15 am)30.24 in (5:15 pm)
Wind Speed5.7 mph13.8 mph (12:35 pm)
Wind Gust18.4 mph (12:15 pm)
Weather ElementAverage
Visibility7.3 mi
Wind DirectionESE (120.9 °)

Weather ElementTotal
Precipitation---
Heating Degree Days6.9 (Base 65)
Growing Degree Days8.1 (Base 50)
Averaged from 70 records on January 23, 2013
WEATHER CONDITIONS BREAKOUT
WIND DIRECTION BREAKOUT
WEATHER BY HOUR - JANUARY 23, 2013
[ °C ]   °F
Local TimeTemperatureDewpointHumidityBarometerVisibilityWind DirectionWind SpeedGust SpeedPrecipitationEventsConditions
12:35 AM53.6 °F50.0 °F88 %30.31 in10.0 miSSE (160°)5.8 mphMostly Cloudy
12:55 AM53.6 °F51.8 °F94 %30.31 in10.0 miSouth (170°)4.6 mphMostly Cloudy
1:15 AM53.6 °F51.8 °F94 %30.31 in10.0 miCalmClear
1:35 AM51.8 °F51.8 °F100 %30.31 in10.0 miSouth (170°)6.9 mphClear
1:55 AM51.8 °F51.8 °F100 %30.31 in10.0 miSouth (180°)5.8 mphClear
2:15 AM51.8 °F51.8 °F100 %30.31 in10.0 miCalmClear
2:35 AM51.8 °F51.8 °F100 %30.31 in10.0 miCalmClear
2:55 AM51.8 °F51.8 °F100 %30.31 in10.0 miCalmClear
3:15 AM51.8 °F51.8 °F100 %30.31 in8.0 miCalmClear
3:35 AM51.8 °F51.8 °F100 %30.31 in5.0 miCalmClear
3:55 AM50.0 °F50.0 °F100 %30.30 in4.0 miSouth (180°)5.8 mphClear
4:15 AM50.0 °F50.0 °F100 %30.30 in3.0 miSouth (180°)4.6 mphClear
4:35 AM50.0 °F50.0 °F100 %30.31 in2.5 miSouth (180°)3.5 mphClear
4:55 AM50.0 °F50.0 °F100 %30.31 in0.8 miSouth (190°)3.5 mphMist
5:15 AM48.2 °F48.2 °F100 %30.31 in0.5 miSouth (180°)3.5 mphFogFog
5:35 AM46.4 °F46.4 °F100 %30.31 in0.2 miCalmFogFog
5:55 AM44.6 °F44.6 °F100 %30.32 in0.2 miCalmFogFog
6:15 AM44.6 °F44.6 °F100 %30.32 in0.2 miCalmFogFog
6:35 AM46.4 °F46.4 °F100 %30.32 in0.2 miCalmFogFog
6:55 AM46.4 °F46.4 °F100 %30.32 in0.2 miSSW (210°)3.5 mphFogFog
7:15 AM48.2 °F48.2 °F100 %30.33 in0.2 miCalmFogFog
7:35 AM48.2 °F48.2 °F100 %30.34 in0.2 miCalmFogFog
7:55 AM46.4 °F46.4 °F100 %30.34 in0.2 miCalmFogFog
8:15 AM46.4 °F46.4 °F100 %30.35 in0.2 miCalmFogFog
8:35 AM48.2 °F48.2 °F100 %30.35 in0.2 miCalmFogFog
8:55 AM48.2 °F48.2 °F100 %30.36 in0.2 miCalmFogFog
9:15 AM50.0 °F50.0 °F100 %30.36 in0.2 miCalmFogFog
9:35 AM51.8 °F51.8 °F100 %30.37 in0.2 miESE (120°)3.5 mphFogFog
9:55 AM51.8 °F51.8 °F100 %30.37 in1.5 miSE (140°)3.5 mphOvercast
10:15 AM53.6 °F53.6 °F100 %30.38 in5.0 miCalmMostly Cloudy
10:35 AM55.4 °F55.4 °F100 %30.38 in10.0 miCalmClear
10:55 AM59.0 °F59.0 °F100 %30.37 in10.0 miSE (140°)3.5 mphClear
11:15 AM64.4 °F57.2 °F77 %30.37 in10.0 miSSE (160°)10.4 mphClear
11:35 AM66.2 °F57.2 °F73 %30.36 in10.0 miSouth (170°)9.2 mphClear
11:55 AM66.2 °F57.2 °F73 %30.35 in10.0 miSSW (200°)10.4 mphScattered Clouds
12:15 PM68.0 °F57.2 °F68 %30.33 in10.0 miSSW (210°)10.4 mph18.4 mphMostly Cloudy
12:35 PM69.8 °F55.4 °F60 %30.32 in10.0 miSSW (200°)13.8 mphPartly Cloudy
12:55 PM69.8 °F55.4 °F60 %30.30 in10.0 miSouth (190°)10.4 mph18.4 mphClear
1:15 PM69.8 °F55.4 °F60 %30.29 in10.0 miSouth (190°)12.7 mph18.4 mphClear
1:35 PM69.8 °F55.4 °F60 %30.28 in10.0 miSW (220°)10.4 mphClear
1:55 PM71.6 °F57.2 °F60 %30.28 in10.0 miSSW (200°)11.5 mphClear
2:15 PM69.8 °F57.2 °F64 %30.27 in10.0 miSouth (180°)12.7 mphScattered Clouds
2:35 PM69.8 °F57.2 °F64 %30.27 in10.0 miSouth (190°)8.1 mphScattered Clouds
2:55 PM69.8 °F57.2 °F64 %30.26 in10.0 miSouth (190°)9.2 mphMostly Cloudy
3:15 PM69.8 °F57.2 °F64 %30.26 in10.0 miSouth (190°)11.5 mph17.3 mphMostly Cloudy
3:35 PM69.8 °F57.2 °F64 %30.26 in10.0 miSouth (180°)12.7 mph16.1 mphMostly Cloudy
3:55 PM69.8 °F57.2 °F64 %30.26 in10.0 miSSW (200°)9.2 mphMostly Cloudy
4:15 PM69.8 °F57.2 °F64 %30.26 in10.0 miSSW (200°)9.2 mphMostly Cloudy
4:35 PM69.8 °F57.2 °F64 %30.26 in10.0 miSouth (170°)6.9 mphMostly Cloudy
4:55 PM69.8 °F57.2 °F64 %30.25 in10.0 miSouth (170°)10.4 mphOvercast
5:15 PM69.8 °F55.4 °F60 %30.24 in10.0 miSouth (170°)10.4 mphMostly Cloudy
5:35 PM68.0 °F57.2 °F68 %30.24 in10.0 miSouth (170°)8.1 mphPartly Cloudy
5:55 PM66.2 °F57.2 °F73 %30.24 in10.0 miSouth (170°)6.9 mphClear
6:15 PM64.4 °F55.4 °F73 %30.24 in10.0 miSSE (160°)5.8 mphClear
6:35 PM64.4 °F55.4 °F73 %30.24 in10.0 miCalmClear
6:55 PM64.4 °F55.4 °F73 %30.25 in10.0 miCalmClear
7:15 PM62.6 °F55.4 °F77 %30.25 in10.0 miCalmClear
7:55 PM60.8 °F55.4 °F82 %30.25 in10.0 miSSE (160°)6.9 mphClear
8:15 PM60.8 °F55.4 °F82 %30.25 in10.0 miSSE (150°)8.1 mphClear
8:35 PM60.8 °F57.2 °F88 %30.25 in10.0 miSSE (150°)8.1 mphClear
8:55 PM60.8 °F57.2 °F88 %30.25 in10.0 miSSE (160°)6.9 mphClear
9:15 PM60.8 °F57.2 °F88 %30.25 in10.0 miSSE (160°)8.1 mphClear
9:35 PM60.8 °F57.2 °F88 %30.25 in10.0 miSouth (170°)9.2 mphClear
9:55 PM60.8 °F59.0 °F94 %30.25 in10.0 miSouth (170°)9.2 mphClear
10:15 PM60.8 °F59.0 °F94 %30.25 in10.0 miSouth (170°)10.4 mphClear
10:35 PM60.8 °F60.8 °F100 %30.25 in10.0 miSouth (170°)11.5 mphClear
10:55 PM60.8 °F60.8 °F100 %30.25 in10.0 miSouth (180°)11.5 mphClear
11:15 PM60.8 °F60.8 °F100 %30.26 in10.0 miSouth (180°)9.2 mphClear
11:35 PM60.8 °F60.8 °F100 %30.26 in10.0 miSouth (180°)9.2 mphClear
11:55 PM60.8 °F60.8 °F100 %30.26 in10.0 miSouth (180°)9.2 mphClear
Hourly data recorded from KRWV, located miles away from Dime Box, Texas







STORIES FROM OUR PARTNERS